[sarex] 2 Line ISS Keps 1-14

Dave Larsen PhD doc at volcano.net
Mon Jan 14 06:29:54 PST 2008


ISS
1 25544U 98067A   08014.55600694  .00024594  00000-0  15177-3 0  7129
2 25544 051.6383 093.7755 0005484 280.0502 284.2730 15.76984221524127


More information about the SAREX mailing list